TFS503 KLIT-KMDW

Flight info

Callsign TFS503
Flight time 1h 17m
Altitude 37000
Route SICOD SPI PHEEB ENDEE8
Aircraft A320/M-SDE3FGHIRWY/LB1

Departure

Time 2026-05-05 21:46
Airport Bill & Hillary Clinton National Airport/Adams Field (KLIT)

Arrival

Time 2026-05-05 23:03
Airport Chicago Midway International Airport (KMDW)
Time Latitude Longitude Altitude Speed Heading
2026-05-05 21:29 34.73072 -92.22024 267 ft 0 kts 133°
2026-05-05 21:35 34.73085 -92.22041 267 ft 4 kts 130°
2026-05-05 21:35 34.73101 -92.22067 267 ft 4 kts 119°
2026-05-05 21:36 34.73110 -92.22095 267 ft 4 kts 77°
2026-05-05 21:36 34.73104 -92.22108 267 ft 0 kts 21°
2026-05-05 21:37 34.73114 -92.22104 267 ft 7 kts 21°
2026-05-05 21:38 34.73163 -92.22080 267 ft 7 kts 21°
2026-05-05 21:38 34.73197 -92.22064 267 ft 11 kts 21°
2026-05-05 21:38 34.73214 -92.21988 267 ft 10 kts 105°
2026-05-05 21:38 34.73191 -92.21914 267 ft 9 kts 112°
2026-05-05 21:39 34.73169 -92.21846 267 ft 10 kts 112°
2026-05-05 21:39 34.73103 -92.21759 267 ft 15 kts 138°
2026-05-05 21:39 34.73059 -92.21658 269 ft 13 kts 114°
2026-05-05 21:39 34.73020 -92.21556 267 ft 13 kts 114°
2026-05-05 21:40 34.72976 -92.21437 267 ft 17 kts 114°
2026-05-05 21:40 34.72928 -92.21306 267 ft 18 kts 114°
2026-05-05 21:40 34.72899 -92.21166 266 ft 17 kts 68°
2026-05-05 21:40 34.72971 -92.21061 266 ft 16 kts 46°
2026-05-05 21:41 34.73058 -92.20950 266 ft 26 kts 47°
2026-05-05 21:41 34.73179 -92.20795 266 ft 22 kts 46°
2026-05-05 21:41 34.73278 -92.20670 267 ft 19 kts 46°
2026-05-05 21:41 34.73366 -92.20557 267 ft 18 kts 46°
2026-05-05 21:42 34.73441 -92.20443 266 ft 17 kts 53°
2026-05-05 21:42 34.73509 -92.20333 266 ft 16 kts 53°
2026-05-05 21:42 34.73554 -92.20227 265 ft 12 kts 96°
2026-05-05 21:42 34.73551 -92.20214 264 ft 5 kts 109°
2026-05-05 21:43 34.73494 -92.20157 262 ft 9 kts 166°
2026-05-05 21:43 34.73461 -92.20179 262 ft 0 kts 226°
2026-05-05 21:45 34.73453 -92.20189 262 ft 16 kts 226°
2026-05-05 21:45 34.73174 -92.20544 264 ft 95 kts 226°
2026-05-05 21:46 34.72577 -92.21302 330 ft 146 kts 226°
2026-05-05 21:46 34.71885 -92.22218 1059 ft 147 kts 228°
2026-05-05 21:46 34.71388 -92.23293 1824 ft 151 kts 257°
2026-05-05 21:46 34.71614 -92.24596 2332 ft 178 kts 298°
2026-05-05 21:47 34.72750 -92.25469 2670 ft 217 kts 346°
2026-05-05 21:47 34.74361 -92.25333 3038 ft 249 kts 11°
2026-05-05 21:47 34.76100 -92.24665 3518 ft 275 kts 18°
2026-05-05 21:47 34.77953 -92.23786 4151 ft 293 kts 19°
2026-05-05 21:48 34.79866 -92.22858 5064 ft 300 kts 18°
2026-05-05 21:48 34.81832 -92.21943 6017 ft 304 kts 17°
2026-05-05 21:48 34.83836 -92.21061 6957 ft 308 kts 14°
2026-05-05 21:48 34.85851 -92.20215 7874 ft 312 kts 12°
2026-05-05 21:49 34.87907 -92.19327 8828 ft 316 kts 12°
2026-05-05 21:49 34.89975 -92.18375 9767 ft 319 kts 12°
2026-05-05 21:49 34.92073 -92.17383 10419 ft 333 kts 12°
2026-05-05 21:49 34.94306 -92.16329 10835 ft 352 kts 12°
2026-05-05 21:50 34.96611 -92.15229 11567 ft 359 kts 13°
2026-05-05 21:50 34.98947 -92.14104 12420 ft 363 kts 13°
2026-05-05 21:50 35.01303 -92.12967 13284 ft 366 kts 13°
2026-05-05 21:50 35.03684 -92.11823 14071 ft 369 kts 12°
2026-05-05 21:51 35.06084 -92.10677 14797 ft 372 kts 12°
2026-05-05 21:51 35.08508 -92.09520 15519 ft 376 kts 12°
2026-05-05 21:51 35.10955 -92.08354 16218 ft 380 kts 12°
2026-05-05 21:51 35.13431 -92.07176 16915 ft 384 kts 12°
2026-05-05 21:52 35.18468 -92.04780 18281 ft 392 kts 12°
2026-05-05 21:52 35.21023 -92.03568 18881 ft 396 kts 12°
2026-05-05 21:52 35.23606 -92.02341 19510 ft 399 kts 12°
2026-05-05 21:53 35.26206 -92.01101 20115 ft 403 kts 12°
2026-05-05 21:53 35.28831 -91.99849 20705 ft 407 kts 12°
2026-05-05 21:53 35.31482 -91.98582 21293 ft 411 kts 12°
2026-05-05 21:53 35.34151 -91.97302 21878 ft 414 kts 12°
2026-05-05 21:54 35.36846 -91.96008 22425 ft 418 kts 12°
2026-05-05 21:54 35.39567 -91.94702 22976 ft 422 kts 12°
2026-05-05 21:54 35.42307 -91.93386 23494 ft 425 kts 12°
2026-05-05 21:54 35.45076 -91.92056 23945 ft 429 kts 12°
2026-05-05 21:55 35.47863 -91.90720 24394 ft 431 kts 12°
2026-05-05 21:55 35.50669 -91.89377 24878 ft 434 kts 12°
2026-05-05 21:55 35.53490 -91.88025 25330 ft 437 kts 12°
2026-05-05 21:55 35.56324 -91.86665 25776 ft 439 kts 12°
2026-05-05 21:56 35.59180 -91.85292 26222 ft 442 kts 12°
2026-05-05 21:56 35.62051 -91.83907 26648 ft 445 kts 11°
2026-05-05 21:56 35.64936 -91.82512 27071 ft 447 kts 11°
2026-05-05 21:56 35.67843 -91.81106 27498 ft 450 kts 11°
2026-05-05 21:57 35.70768 -91.79692 27920 ft 453 kts 11°
2026-05-05 21:57 35.73712 -91.78268 28337 ft 456 kts 11°
2026-05-05 21:57 35.76671 -91.76836 28761 ft 459 kts 11°
2026-05-05 21:57 35.79654 -91.75395 29154 ft 462 kts 11°
2026-05-05 21:58 35.82659 -91.73943 29545 ft 465 kts 11°
2026-05-05 21:58 35.85677 -91.72482 29917 ft 468 kts 11°
2026-05-05 21:58 35.88719 -91.71006 30234 ft 471 kts 11°
2026-05-05 21:58 35.91777 -91.69521 30562 ft 473 kts 11°
2026-05-05 21:59 35.94806 -91.68048 30876 ft 475 kts 10°
2026-05-05 21:59 35.97930 -91.66526 31179 ft 478 kts 10°
2026-05-05 21:59 36.00987 -91.65034 31499 ft 479 kts 10°
2026-05-05 21:59 36.04121 -91.63503 31950 ft 478 kts
2026-05-05 22:00 36.07208 -91.61990 32398 ft 476 kts
2026-05-05 22:00 36.10243 -91.60505 32843 ft 474 kts
2026-05-05 22:00 36.13346 -91.58987 33315 ft 473 kts
2026-05-05 22:00 36.16357 -91.57514 33740 ft 472 kts
2026-05-05 22:01 36.19406 -91.56019 34131 ft 470 kts
2026-05-05 22:01 36.22445 -91.54530 34488 ft 470 kts
2026-05-05 22:01 36.25484 -91.53042 34854 ft 469 kts
2026-05-05 22:01 36.28521 -91.51553 35163 ft 469 kts
2026-05-05 22:02 36.31549 -91.50065 35540 ft 467 kts
2026-05-05 22:02 36.34563 -91.48580 35895 ft 466 kts
2026-05-05 22:02 36.37570 -91.47098 36238 ft 464 kts
2026-05-05 22:02 36.40568 -91.45622 36566 ft 463 kts
2026-05-05 22:03 36.43567 -91.44147 36759 ft 463 kts
2026-05-05 22:03 36.49502 -91.41214 36825 ft 457 kts
2026-05-05 22:04 36.55409 -91.38299 36793 ft 456 kts
2026-05-05 22:04 36.61315 -91.35392 36799 ft 457 kts
2026-05-05 22:05 36.67224 -91.32465 36800 ft 457 kts
2026-05-05 22:05 36.73127 -91.29527 36795 ft 457 kts
2026-05-05 22:06 36.79031 -91.26587 36835 ft 457 kts
2026-05-05 22:06 36.84936 -91.23642 36839 ft 457 kts
2026-05-05 22:07 36.90842 -91.20693 36829 ft 457 kts
2026-05-05 22:07 36.96739 -91.17747 36826 ft 457 kts
2026-05-05 22:08 37.02646 -91.14786 36847 ft 457 kts
2026-05-05 22:08 37.08558 -91.11818 36848 ft 458 kts
2026-05-05 22:09 37.14423 -91.08872 36848 ft 457 kts
2026-05-05 22:09 37.20336 -91.05906 36848 ft 458 kts
2026-05-05 22:10 37.26247 -91.02932 36886 ft 458 kts
2026-05-05 22:10 37.32167 -90.99938 36863 ft 459 kts
2026-05-05 22:11 37.38090 -90.96934 36863 ft 459 kts
2026-05-05 22:11 37.44020 -90.93931 36871 ft 459 kts
2026-05-05 22:12 37.49955 -90.90926 36901 ft 460 kts
2026-05-05 22:12 37.55893 -90.87910 36899 ft 460 kts
2026-05-05 22:13 37.61836 -90.84877 36898 ft 461 kts
2026-05-05 22:13 37.67780 -90.81845 36890 ft 460 kts
2026-05-05 22:14 37.73722 -90.78811 36928 ft 461 kts
2026-05-05 22:14 37.79662 -90.75767 36917 ft 460 kts
2026-05-05 22:15 37.85592 -90.72717 36920 ft 459 kts
2026-05-05 22:15 37.91511 -90.69678 36911 ft 458 kts
2026-05-05 22:16 37.97422 -90.66640 36930 ft 458 kts
2026-05-05 22:16 38.03281 -90.63615 36918 ft 457 kts
2026-05-05 22:17 38.09172 -90.60571 36908 ft 457 kts
2026-05-05 22:17 38.15063 -90.57525 36908 ft 457 kts
2026-05-05 22:18 38.20963 -90.54473 36946 ft 458 kts
2026-05-05 22:18 38.26876 -90.51410 36907 ft 459 kts
2026-05-05 22:19 38.32800 -90.48326 36903 ft 461 kts
2026-05-05 22:19 38.38738 -90.45222 36902 ft 461 kts
2026-05-05 22:20 38.44673 -90.42116 36897 ft 461 kts
2026-05-05 22:20 38.50616 -90.39010 36899 ft 462 kts
2026-05-05 22:21 38.56559 -90.35903 36907 ft 461 kts
2026-05-05 22:21 38.62485 -90.32796 36912 ft 460 kts
2026-05-05 22:22 38.68402 -90.29687 36927 ft 459 kts
2026-05-05 22:22 38.74297 -90.26580 36919 ft 458 kts
2026-05-05 22:23 38.80187 -90.23477 36916 ft 458 kts
2026-05-05 22:23 38.86081 -90.20363 36924 ft 458 kts
2026-05-05 22:24 38.91971 -90.17242 36952 ft 458 kts
2026-05-05 22:24 38.96873 -90.14646 36936 ft 459 kts
2026-05-05 22:25 39.03742 -90.10999 36924 ft 459 kts
2026-05-05 22:25 39.09648 -90.07848 36922 ft 460 kts
2026-05-05 22:26 39.14606 -90.05197 36950 ft 461 kts
2026-05-05 22:26 39.20482 -90.02060 36939 ft 461 kts
2026-05-05 22:27 39.26419 -89.98893 36927 ft 461 kts
2026-05-05 22:27 39.32305 -89.95733 36936 ft 461 kts
2026-05-05 22:28 39.38226 -89.92552 36945 ft 459 kts
2026-05-05 22:28 39.44073 -89.89407 36938 ft 457 kts
2026-05-05 22:29 39.49938 -89.86241 36920 ft 457 kts
2026-05-05 22:29 39.55819 -89.83067 36635 ft 458 kts
2026-05-05 22:29 39.58763 -89.81479 36433 ft 458 kts
2026-05-05 22:30 39.61697 -89.79888 36178 ft 456 kts
2026-05-05 22:30 39.64626 -89.78295 35919 ft 455 kts
2026-05-05 22:30 39.67545 -89.76709 35682 ft 455 kts
2026-05-05 22:30 39.70467 -89.75124 35437 ft 455 kts
2026-05-05 22:31 39.73389 -89.73540 35192 ft 454 kts
2026-05-05 22:31 39.76301 -89.71956 34956 ft 453 kts
2026-05-05 22:31 39.79200 -89.70371 34720 ft 451 kts
2026-05-05 22:31 39.82084 -89.68787 34529 ft 451 kts
2026-05-05 22:32 39.84901 -89.66839 34291 ft 466 kts 18°
2026-05-05 22:32 39.87581 -89.64398 34075 ft 472 kts 21°
2026-05-05 22:32 39.90230 -89.61889 33572 ft 469 kts 22°
2026-05-05 22:32 39.92854 -89.59386 33048 ft 466 kts 23°
2026-05-05 22:33 39.95459 -89.56894 32518 ft 463 kts 24°
2026-05-05 22:33 39.98049 -89.54420 31990 ft 460 kts 24°
2026-05-05 22:33 40.00623 -89.51966 31482 ft 457 kts 25°
2026-05-05 22:33 40.03181 -89.49531 31002 ft 454 kts 26°
2026-05-05 22:34 40.05730 -89.47111 30479 ft 452 kts 26°
2026-05-05 22:34 40.08234 -89.44735 29973 ft 449 kts 27°
2026-05-05 22:34 40.10751 -89.42340 29462 ft 445 kts 27°
2026-05-05 22:34 40.13237 -89.39965 28993 ft 440 kts 28°
2026-05-05 22:35 40.15696 -89.37610 28535 ft 435 kts 28°
2026-05-05 22:35 40.18121 -89.35279 28095 ft 430 kts 28°
2026-05-05 22:35 40.20520 -89.32976 27659 ft 426 kts 28°
2026-05-05 22:35 40.22901 -89.30692 27212 ft 422 kts 28°
2026-05-05 22:36 40.25257 -89.28433 26800 ft 418 kts 29°
2026-05-05 22:36 40.27598 -89.26189 26343 ft 416 kts 29°
2026-05-05 22:36 40.29920 -89.23958 25909 ft 413 kts 30°
2026-05-05 22:36 40.32228 -89.21731 25469 ft 411 kts 30°
2026-05-05 22:37 40.34520 -89.19509 25017 ft 409 kts 30°
2026-05-05 22:37 40.36802 -89.17298 24558 ft 407 kts 31°
2026-05-05 22:37 40.39090 -89.15105 24094 ft 405 kts 28°
2026-05-05 22:37 40.41507 -89.13292 23659 ft 398 kts 19°
2026-05-05 22:38 40.44002 -89.11705 23207 ft 398 kts 20°
2026-05-05 22:38 40.46482 -89.10115 22790 ft 396 kts 20°
2026-05-05 22:38 40.48949 -89.08524 22300 ft 395 kts 19°
2026-05-05 22:38 40.51416 -89.06930 21834 ft 393 kts 19°
2026-05-05 22:39 40.53863 -89.05348 21348 ft 391 kts 19°
2026-05-05 22:39 40.56303 -89.03770 20881 ft 390 kts 19°
2026-05-05 22:39 40.58731 -89.02206 20419 ft 388 kts 19°
2026-05-05 22:39 40.61153 -89.00645 19958 ft 387 kts 19°
2026-05-05 22:40 40.63565 -88.99089 19491 ft 386 kts 19°
2026-05-05 22:40 40.65969 -88.97535 19038 ft 384 kts 19°
2026-05-05 22:40 40.68367 -88.95985 18582 ft 383 kts 20°
2026-05-05 22:40 40.70759 -88.94437 18156 ft 381 kts 20°
2026-05-05 22:41 40.73124 -88.92905 17755 ft 377 kts 20°
2026-05-05 22:41 40.75471 -88.91381 17300 ft 375 kts 20°
2026-05-05 22:41 40.77799 -88.89865 16857 ft 372 kts 20°
2026-05-05 22:41 40.80119 -88.88354 16413 ft 371 kts 21°
2026-05-05 22:42 40.82423 -88.86852 15974 ft 369 kts 21°
2026-05-05 22:42 40.84708 -88.85363 15520 ft 360 kts 21°
2026-05-05 22:42 40.86910 -88.83927 15107 ft 350 kts 21°
2026-05-05 22:42 40.89088 -88.82512 14692 ft 346 kts 21°
2026-05-05 22:43 40.91236 -88.81117 14289 ft 341 kts 21°
2026-05-05 22:43 40.93336 -88.79748 13877 ft 332 kts 21°
2026-05-05 22:43 40.95361 -88.78429 13469 ft 327 kts 21°
2026-05-05 22:43 40.97394 -88.77109 13063 ft 324 kts 21°
2026-05-05 22:44 40.99418 -88.75797 12680 ft 324 kts 21°
2026-05-05 22:44 41.01439 -88.74485 12292 ft 323 kts 21°
2026-05-05 22:44 41.03449 -88.73176 11890 ft 322 kts 21°
2026-05-05 22:44 41.05453 -88.71864 11520 ft 320 kts 21°
2026-05-05 22:45 41.07445 -88.70554 11142 ft 319 kts 21°
2026-05-05 22:45 41.09431 -88.69252 10753 ft 318 kts 21°
2026-05-05 22:45 41.11414 -88.67953 10382 ft 317 kts 22°
2026-05-05 22:45 41.13386 -88.66661 10017 ft 316 kts 22°
2026-05-05 22:46 41.15339 -88.65382 9788 ft 308 kts 22°
2026-05-05 22:46 41.17247 -88.64131 9434 ft 305 kts 22°
2026-05-05 22:46 41.19139 -88.62885 9050 ft 302 kts 22°
2026-05-05 22:46 41.21004 -88.61664 8725 ft 297 kts 22°
2026-05-05 22:47 41.22841 -88.60463 8482 ft 290 kts 22°
2026-05-05 22:47 41.24647 -88.59281 8353 ft 289 kts 22°
2026-05-05 22:47 41.26444 -88.58107 8175 ft 287 kts 22°
2026-05-05 22:47 41.28232 -88.56936 7982 ft 285 kts 22°
2026-05-05 22:48 41.30010 -88.55772 7798 ft 284 kts 22°
2026-05-05 22:48 41.31776 -88.54612 7610 ft 282 kts 22°
2026-05-05 22:48 41.33523 -88.53462 7433 ft 280 kts 22°
2026-05-05 22:48 41.35264 -88.52315 7247 ft 279 kts 22°
2026-05-05 22:49 41.36961 -88.51053 7065 ft 280 kts 32°
2026-05-05 22:49 41.38398 -88.49295 6936 ft 283 kts 46°
2026-05-05 22:49 41.39628 -88.47261 6861 ft 283 kts 47°
2026-05-05 22:49 41.40851 -88.45237 6767 ft 283 kts 47°
2026-05-05 22:50 41.42086 -88.43201 6668 ft 282 kts 47°
2026-05-05 22:50 41.43333 -88.41152 6574 ft 281 kts 47°
2026-05-05 22:50 41.44547 -88.39158 6482 ft 280 kts 47°
2026-05-05 22:50 41.45767 -88.37149 6385 ft 279 kts 47°
2026-05-05 22:51 41.46987 -88.35138 6291 ft 278 kts 47°
2026-05-05 22:51 41.48201 -88.33139 6202 ft 277 kts 47°
2026-05-05 22:51 41.49399 -88.31166 6108 ft 276 kts 48°
2026-05-05 22:51 41.50395 -88.28961 6021 ft 280 kts 64°
2026-05-05 22:52 41.50933 -88.26465 5903 ft 282 kts 79°
2026-05-05 22:52 41.51166 -88.23864 5795 ft 282 kts 81°
2026-05-05 22:52 41.51399 -88.21266 5679 ft 282 kts 81°
2026-05-05 22:52 41.51635 -88.18674 5557 ft 281 kts 81°
2026-05-05 22:53 41.51875 -88.16090 5451 ft 280 kts 81°
2026-05-05 22:53 41.52112 -88.13511 5340 ft 280 kts 81°
2026-05-05 22:53 41.52345 -88.10946 5215 ft 278 kts 81°
2026-05-05 22:53 41.52576 -88.08381 5111 ft 278 kts 81°
2026-05-05 22:54 41.52803 -88.05826 4995 ft 277 kts 81°
2026-05-05 22:54 41.53028 -88.03281 4878 ft 277 kts 82°
2026-05-05 22:54 41.53255 -88.00742 4765 ft 275 kts 82°
2026-05-05 22:54 41.53484 -87.98204 4653 ft 275 kts 81°
2026-05-05 22:55 41.53712 -87.95674 4538 ft 274 kts 81°
2026-05-05 22:55 41.53939 -87.93153 4428 ft 273 kts 81°
2026-05-05 22:55 41.54163 -87.90634 4317 ft 273 kts 81°
2026-05-05 22:55 41.54386 -87.88119 4204 ft 273 kts 81°
2026-05-05 22:56 41.54607 -87.85612 4095 ft 272 kts 82°
2026-05-05 22:56 41.54827 -87.83107 3982 ft 272 kts 82°
2026-05-05 22:56 41.55052 -87.80604 3790 ft 272 kts 81°
2026-05-05 22:56 41.55303 -87.78121 3598 ft 270 kts 81°
2026-05-05 22:57 41.55532 -87.75633 3509 ft 270 kts 82°
2026-05-05 22:57 41.55719 -87.73138 3445 ft 270 kts 83°
2026-05-05 22:57 41.55872 -87.70638 3392 ft 271 kts 84°
2026-05-05 22:57 41.56016 -87.68138 3330 ft 269 kts 81°
2026-05-05 22:58 41.56614 -87.65799 3277 ft 266 kts 56°
2026-05-05 22:58 41.57828 -87.64033 3184 ft 261 kts 32°
2026-05-05 22:58 41.59459 -87.63084 3048 ft 255 kts
2026-05-05 22:58 41.61169 -87.63060 2916 ft 240 kts 348°
2026-05-05 22:59 41.62782 -87.63419 2786 ft 231 kts 348°
2026-05-05 22:59 41.64328 -87.63753 2658 ft 220 kts 349°
2026-05-05 22:59 41.65811 -87.64066 2555 ft 211 kts 349°
2026-05-05 22:59 41.67227 -87.64363 2507 ft 200 kts 348°
2026-05-05 23:00 41.69920 -87.64928 2521 ft 183 kts 348°
2026-05-05 23:00 41.71064 -87.65259 2484 ft 155 kts 336°
2026-05-05 23:00 41.71928 -87.65978 2355 ft 140 kts 316°
2026-05-05 23:01 41.72585 -87.66887 2206 ft 130 kts 312°
2026-05-05 23:01 41.73204 -87.67753 2039 ft 127 kts 312°
2026-05-05 23:01 41.73811 -87.68604 1877 ft 126 kts 311°
2026-05-05 23:01 41.74416 -87.69451 1709 ft 126 kts 313°
2026-05-05 23:02 41.75017 -87.70293 1531 ft 125 kts 313°
2026-05-05 23:02 41.75618 -87.71136 1355 ft 125 kts 310°
2026-05-05 23:02 41.76223 -87.71985 1181 ft 126 kts 310°
2026-05-05 23:02 41.76832 -87.72823 1008 ft 125 kts 311°
2026-05-05 23:03 41.77431 -87.73670 824 ft 125 kts 312°
2026-05-05 23:03 41.78025 -87.74513 677 ft 123 kts 313°
2026-05-05 23:03 41.78587 -87.75307 628 ft 103 kts 314°
2026-05-05 23:03 41.78880 -87.75711 630 ft 32 kts 322°
2026-05-05 23:04 41.79061 -87.75815 634 ft 20 kts 344°
2026-05-05 23:04 41.79124 -87.75772 629 ft 12 kts 82°
2026-05-05 23:04 41.79125 -87.75667 629 ft 11 kts 89°
2026-05-05 23:04 41.79128 -87.75551 629 ft 13 kts 88°
2026-05-05 23:05 41.79131 -87.75386 629 ft 20 kts 89°
2026-05-05 23:05 41.79134 -87.75221 632 ft 16 kts 89°
2026-05-05 23:05 41.79135 -87.75081 638 ft 15 kts 89°
2026-05-05 23:05 41.79138 -87.74948 632 ft 15 kts 89°
2026-05-05 23:06 41.79141 -87.74758 631 ft 22 kts 89°
2026-05-05 23:06 41.79129 -87.74600 633 ft 13 kts 123°
2026-05-05 23:06 41.79068 -87.74514 631 ft 12 kts 134°
2026-05-05 23:06 41.79016 -87.74438 630 ft 11 kts 127°
2026-05-05 23:07 41.78982 -87.74351 632 ft 10 kts 133°
2026-05-05 23:07 41.78951 -87.74284 630 ft 6 kts 107°
2026-05-05 23:07 41.78942 -87.74247 633 ft 4 kts 108°
2026-05-05 23:07 41.78937 -87.74228 631 ft 0 kts 109°